Flag for Germany Weather past 2 weeks in Nürburg, Rhineland-Palatinate, Germany

Now
51 °F

Fog.


Feels Like: 51 °F
Forecast: 50 / 68 °F
Wind: 2 mph from Southeast

Location: Nuerburg-Barweiler

Current Time: Sep 15, 2014 at 6:47:15 AM

Latest Report: Sep 15, 2014 at 6:00 AM


Visibility: 1 mi

Pressure: 30.06 "Hg

Humidity: 99%

Dew point: 51 °F

Location of NürburgLocation

Historic Weather in Nürburg — Graph

°F

Nürburg temperature yesterday

Maximum temperature yesterday: 61 °F (at 6:00 PM)
Minimum temperature yesterday: 53 °F (at 6:00 AM)
Average temperature yesterday: 56 °F

Past Weeks' High & Low Weather Summary

 TemperatureHumidityPressure
High73 °F (Sep 5, 6:00 PM)100% (Sep 2, 8:00 AM)30.24 "Hg (Sep 2, 8:00 AM)
Low43 °F (Sep 12, 7:00 AM)55% (Sep 5, 6:00 PM)29.87 "Hg (Sep 6, 6:00 PM)
Average56 °F88%30.09 "Hg
* Reported Aug 31 6:00 AM — Sep 15 6:00 AM, Nürburg, Weather by CustomWeather, © 2014

Note: Actual official high and low records may vary slightly from our data, if they occured in-between our weather recording intervals... More about our weather records

Advertising

Nürburg weather history for previous 24 hours

 ConditionsComfort  
Time TempWeatherWind HumidityBarometerVisibility
6:00 AM
Sep 15
51 °FFog.2 mph99%30.06 "Hg1 mi
5:00 AM49 °FClear.1 mph99%30.06 "Hg1 mi
4:00 AM52 °FOvercast.3 mph99%30.07 "Hg4 mi
3:00 AM51 °FPassing clouds.1 mph98%30.07 "Hg0 mi
2:00 AM52 °FPassing clouds.No wind98%30.08 "Hg0 mi
1:00 AM54 °FFog.1 mph97%30.07 "Hg4 mi
12:00 AM54 °FFog.1 mph96%30.08 "Hg1 mi
11:00 PM
Sep 14
55 °FFog.1 mph95%30.08 "Hg4 mi
10:00 PM56 °FFog.2 mph94%30.08 "Hg4 mi
9:00 PM56 °FPassing clouds.2 mph92%30.08 "Hg12 mi
8:00 PM58 °FPassing clouds.2 mph89%30.07 "Hg14 mi
7:00 PM60 °FPassing clouds.2 mph82%30.07 "Hg16 mi
6:00 PM61 °FScattered clouds.1 mph83%30.08 "Hg16 mi
4:00 PM59 °FLow clouds.2 mph87%30.11 "Hg16 mi
3:00 PM58 °FLow clouds.3 mph91%30.12 "Hg6 mi
2:00 PM57 °FFog.3 mph94%30.13 "Hg3 mi
1:00 PM56 °FFog.3 mph95%30.14 "Hg2 mi
12:00 PM55 °FLow clouds.5 mph96%30.16 "Hg2 mi
10:00 AM54 °FFog.3 mph96%30.16 "Hg2 mi
9:00 AM54 °FFog.2 mph97%30.16 "Hg2 mi
8:00 AM53 °FFog.2 mph97%30.16 "Hg2 mi
7:00 AM53 °FFog.1 mph97%30.16 "Hg2 mi
6:00 AM53 °FOvercast.2 mph97%30.17 "Hg3 mi
Weather by CustomWeather, © 2014

See weather overviewHow to use our weather pages